Stündliche Wetter Abakan

Heute, 27 Juli, Dienstag

Zeit Temperatur Niederschläge Wind Luftdruck Luftfeuchtigkeit
00:00 +21°C° 0 mm 1 m/S 729 mmHg 86%
01:00 +20°C° 0.1 mm 2 m/S 729 mmHg 87%
02:00 +19°C° 0.1 mm 2 m/S 729 mmHg 88%
03:00 +19°C° 0.1 mm 2 m/S 729 mmHg 89%
04:00 +19°C° 0.1 mm 2 m/S 730 mmHg 87%
05:00 +20°C° 0.1 mm 2 m/S 730 mmHg 85%
06:00 +20°C° 0 mm 2 m/S 730 mmHg 83%
07:00 +23°C° 0 mm 2 m/S 730 mmHg 77%
08:00 +24°C° 0 mm 2 m/S 730 mmHg 72%
09:00 +25°C° 0 mm 2 m/S 730 mmHg 67%
10:00 +26°C° 0.3 mm 2 m/S 730 mmHg 63%
11:00 +27°C° 0.3 mm 2 m/S 730 mmHg 59%
12:00 +28°C° 0.3 mm 2 m/S 730 mmHg 55%
13:00 +28°C° 0.1 mm 2 m/S 730 mmHg 55%
14:00 +28°C° 0.1 mm 3 m/S 730 mmHg 56%
15:00 +28°C° 0.1 mm 3 m/S 730 mmHg 56%
16:00 +26°C° 0.4 mm 3 m/S 730 mmHg 61%
17:00 +25°C° 0.4 mm 3 m/S 730 mmHg 66%
18:00 +24°C° 0.4 mm 3 m/S 730 mmHg 71%
19:00 +22°C° 0.3 mm 3 m/S 731 mmHg 74%
20:00 +21°C° 0.3 mm 3 m/S 731 mmHg 77%
21:00 +20°C° 0.3 mm 2 m/S 731 mmHg 80%
22:00 +20°C° 0.1 mm 3 m/S 731 mmHg 80%
23:00 +19°C° 0.1 mm 3 m/S 732 mmHg 81%

Morgen, 28 Juli, Mittwoch

Zeit Temperatur Niederschläge Wind Luftdruck Luftfeuchtigkeit
00:00 +19°C° 0.1 mm 3 m/S 732 mmHg 82%
01:00 +18°C° 0.3 mm 3 m/S 732 mmHg 82%
02:00 +18°C° 0.3 mm 3 m/S 732 mmHg 82%
03:00 +17°C° 0.3 mm 3 m/S 732 mmHg 83%
04:00 +15°C° 1.6 mm 4 m/S 732 mmHg 86%
05:00 +15°C° 1.6 mm 4 m/S 732 mmHg 89%
06:00 +14°C° 1.6 mm 4 m/S 732 mmHg 92%
07:00 +14°C° 1.2 mm 4 m/S 733 mmHg 91%
08:00 +14°C° 1.2 mm 4 m/S 733 mmHg 90%
09:00 +14°C° 1.2 mm 3 m/S 733 mmHg 88%
10:00 +16°C° 0.3 mm 3 m/S 733 mmHg 84%
11:00 +17°C° 0.3 mm 3 m/S 733 mmHg 80%
12:00 +18°C° 0.3 mm 3 m/S 733 mmHg 76%
13:00 +18°C° 0 mm 3 m/S 734 mmHg 72%
14:00 +19°C° 0 mm 3 m/S 734 mmHg 69%
15:00 +20°C° 0 mm 2 m/S 734 mmHg 66%
16:00 +19°C° 0 mm 2 m/S 734 mmHg 67%
17:00 +19°C° 0 mm 2 m/S 734 mmHg 69%
18:00 +19°C° 0 mm 2 m/S 734 mmHg 70%
19:00 +19°C° 0 mm 1 m/S 734 mmHg 75%
20:00 +18°C° 0 mm 1 m/S 734 mmHg 80%
21:00 +16°C° 0 mm 1 m/S 734 mmHg 84%
22:00 +16°C° 0 mm 1 m/S 734 mmHg 85%
23:00 +15°C° 0 mm 1 m/S 735 mmHg 86%

übermorgen, 29 Juli, Donnerstag

Zeit Temperatur Niederschläge Wind Luftdruck Luftfeuchtigkeit
00:00 +15°C° 0 mm 1 m/S 735 mmHg 86%
01:00 +15°C° 0 mm 1 m/S 735 mmHg 87%
02:00 +14°C° 0 mm 0 m/S 735 mmHg 87%
03:00 +13°C° 0 mm 0 m/S 735 mmHg 88%
04:00 +14°C° 0 mm 0 m/S 735 mmHg 87%
05:00 +15°C° 0 mm 1 m/S 735 mmHg 85%
06:00 +15°C° 0 mm 1 m/S 735 mmHg 84%
07:00 +18°C° 0 mm 1 m/S 735 mmHg 78%
08:00 +19°C° 0 mm 1 m/S 735 mmHg 72%
09:00 +19°C° 0 mm 2 m/S 735 mmHg 66%
10:00 +20°C° 0 mm 2 m/S 735 mmHg 62%
11:00 +21°C° 0 mm 2 m/S 734 mmHg 57%
12:00 +23°C° 0 mm 2 m/S 734 mmHg 53%
13:00 +24°C° 0 mm 2 m/S 734 mmHg 51%
14:00 +24°C° 0 mm 2 m/S 734 mmHg 50%
15:00 +24°C° 0 mm 2 m/S 734 mmHg 49%
16:00 +24°C° 0 mm 3 m/S 734 mmHg 53%
17:00 +22°C° 0 mm 3 m/S 734 mmHg 57%
18:00 +22°C° 0 mm 3 m/S 733 mmHg 61%
19:00 +20°C° 0 mm 2 m/S 733 mmHg 65%
20:00 +18°C° 0 mm 2 m/S 733 mmHg 70%
21:00 +18°C° 0 mm 1 m/S 733 mmHg 75%
22:00 +16°C° 0 mm 1 m/S 733 mmHg 76%
23:00 +16°C° 0 mm 1 m/S 733 mmHg 77%

30 Juli, Freitag

Zeit Temperatur Niederschläge Wind Luftdruck Luftfeuchtigkeit
00:00 +16°C° 0 mm 1 m/S 733 mmHg 78%
01:00 +15°C° 0 mm 1 m/S 733 mmHg 79%
02:00 +15°C° 0 mm 1 m/S 732 mmHg 80%
03:00 +15°C° 0 mm 1 m/S 732 mmHg 81%
04:00 +15°C° 0 mm 1 m/S 732 mmHg 79%
05:00 +16°C° 0 mm 1 m/S 733 mmHg 78%
06:00 +16°C° 0 mm 1 m/S 733 mmHg 76%
07:00 +18°C° 0 mm 1 m/S 733 mmHg 72%
08:00 +19°C° 0 mm 1 m/S 733 mmHg 68%
09:00 +20°C° 0 mm 1 m/S 733 mmHg 64%
10:00 +21°C° 0 mm 1 m/S 733 mmHg 60%
11:00 +22°C° 0 mm 1 m/S 734 mmHg 57%
12:00 +23°C° 0 mm 1 m/S 734 mmHg 54%
13:00 +24°C° 0 mm 1 m/S 734 mmHg 54%
14:00 +24°C° 0 mm 2 m/S 734 mmHg 55%
15:00 +24°C° 0 mm 2 m/S 734 mmHg 55%
16:00 +23°C° 0.2 mm 2 m/S 734 mmHg 60%
17:00 +23°C° 0.2 mm 2 m/S 735 mmHg 65%
18:00 +21°C° 0.2 mm 2 m/S 735 mmHg 69%
19:00 +20°C° 0.3 mm 2 m/S 735 mmHg 74%
20:00 +18°C° 0.3 mm 2 m/S 735 mmHg 79%
21:00 +17°C° 0.3 mm 2 m/S 736 mmHg 84%
22:00 +18°C° 0.1 mm 1 m/S 736 mmHg 84%
23:00 +16°C° 0.1 mm 1 m/S 737 mmHg 83%

31 Juli, Samstag

Zeit Temperatur Niederschläge Wind Luftdruck Luftfeuchtigkeit
00:00 +16°C° 0.1 mm 1 m/S 737 mmHg 83%
01:00 +16°C° 0 mm 1 m/S 738 mmHg 83%
02:00 +15°C° 0 mm 1 m/S 738 mmHg 84%
03:00 +15°C° 0 mm 1 m/S 739 mmHg 84%
04:00 +15°C° 0.1 mm 1 m/S 739 mmHg 84%
05:00 +16°C° 0.1 mm 1 m/S 740 mmHg 83%
06:00 +16°C° 0.1 mm 1 m/S 740 mmHg 83%
07:00 +17°C° 0 mm 2 m/S 740 mmHg 78%
08:00 +18°C° 0 mm 2 m/S 741 mmHg 73%
09:00 +18°C° 0 mm 2 m/S 741 mmHg 69%
10:00 +19°C° 0 mm 2 m/S 741 mmHg 61%
11:00 +21°C° 0 mm 2 m/S 740 mmHg 54%
12:00 +23°C° 0 mm 2 m/S 740 mmHg 46%
13:00 +23°C° 0 mm 2 m/S 740 mmHg 48%
14:00 +21°C° 0 mm 2 m/S 740 mmHg 50%
15:00 +21°C° 0 mm 3 m/S 740 mmHg 52%
16:00 +21°C° 0 mm 2 m/S 740 mmHg 53%
17:00 +21°C° 0 mm 2 m/S 739 mmHg 54%
18:00 +21°C° 0 mm 2 m/S 739 mmHg 55%
19:00 +19°C° 0 mm 2 m/S 739 mmHg 58%
20:00 +19°C° 0 mm 1 m/S 739 mmHg 62%
21:00 +16°C° 0 mm 1 m/S 739 mmHg 65%
22:00 +15°C° 0 mm 1 m/S 739 mmHg 68%
23:00 +15°C° 0 mm 1 m/S 739 mmHg 71%

1 August, Sonntag

Zeit Temperatur Niederschläge Wind Luftdruck Luftfeuchtigkeit
00:00 +13°C° 0 mm 0 m/S 739 mmHg 74%
01:00 +14°C° 0 mm 1 m/S 739 mmHg 75%
02:00 +13°C° 0 mm 1 m/S 739 mmHg 77%
03:00 +13°C° 0 mm 1 m/S 739 mmHg 78%
04:00 +13°C° 0 mm 1 m/S 739 mmHg 77%
05:00 +14°C° 0 mm 1 m/S 739 mmHg 77%
06:00 +14°C° 0 mm 1 m/S 738 mmHg 76%
07:00 +16°C° 0 mm 1 m/S 738 mmHg 70%
08:00 +18°C° 0 mm 2 m/S 738 mmHg 65%
09:00 +19°C° 0 mm 2 m/S 738 mmHg 60%
10:00 +20°C° 0 mm 2 m/S 737 mmHg 55%
11:00 +23°C° 0 mm 2 m/S 737 mmHg 51%
12:00 +24°C° 0 mm 2 m/S 736 mmHg 47%
13:00 +24°C° 0 mm 2 m/S 736 mmHg 46%
14:00 +25°C° 0 mm 2 m/S 736 mmHg 45%
15:00 +25°C° 0 mm 3 m/S 736 mmHg 44%
16:00 +25°C° 0 mm 2 m/S 736 mmHg 48%
17:00 +24°C° 0 mm 2 m/S 736 mmHg 52%
18:00 +24°C° 0 mm 2 m/S 736 mmHg 56%
19:00 +21°C° 0 mm 2 m/S 736 mmHg 60%
20:00 +20°C° 0 mm 1 m/S 736 mmHg 64%
21:00 +18°C° 0 mm 1 m/S 736 mmHg 68%
22:00 +16°C° 0 mm 1 m/S 736 mmHg 69%
23:00 +16°C° 0 mm 1 m/S 736 mmHg 70%
Mehr zeigen

Wir brauchen deine Erlaubnis

Meteoprog und unser Service Anbieter werden persönliche Daten aufbewahren, so wie Cookies, Geräte Bezeichnung oder ähnliche Technologien von deinem Gerät und Prozess, so wie Persönliche Daten Inhalte und Werbungen, genauso wie social Media und den Verkehr zu analysieren.

  • Aufbewahrung und/oder Zugang zu deiner Geräte Informationen.

    Cookies, Geräte Bezeichnung oder andere Informationen, können aufbewahrt oder Zugang zu deinem Gerät erhalten, für den Grund, der oben angegeben wird.

  • Personalisierte Werbung und Inhalte, Messungen, Einblick in das Publikum und Produkt Entwicklung.

    Werbungen und Inhalte können personalisiert werden, basierend auf ein Profil. Mehr Daten können besser personalisierte Werbungen und Inhalte hinzufügen. Werbung und Inhalte können gezeigt und gemessen werden. Einblicke über das Publikum, welche die Werbung gesehen haben und den Inhalt, können abgeleitet werden. So wie Daten können genutzt werden, um es zu verbessern oder die Benutzer Erfahrung zu verbessern das System und die Software.

Wenn du “Ich stimme zu” klickst, erlaubst du uns, die Cookies zu benutzen die Geräte Bezeichnung, den Web oder ähnliche Technologien zu benutzen. Deine Settings, können in deinem Gerät bei deinem Browser geändert werden.

Für den bestimmten Zweck, berechtigten Interessen beruhen darauf, mehr als auf den Inhalt. Du kannst mehr darüber in unseren Privaten und Cookie Politik lesen.